| time (UTC) | temp C | wind direction | speed KPH | gust KPH | rain 1hr cm | rain 24hr cm | rain mn cm | humidity % | barometer mb |
| 20260506081011 | 11 | 62 | 0.0 | 0.0 | 0.00 | 0.00 | 0.00 | 92 | 1016.5 |
| 20260506080511 | 11 | 62 | 0.0 | 0.0 | 0.00 | 0.00 | 0.00 | 92 | 1016.5 |
| 20260506080104 | 11 | 62 | 0.0 | 0.0 | 0.00 | 0.00 | 0.00 | 92 | 1017.0 |
| 20260506073510 | 11 | 62 | 0.0 | 0.0 | 0.00 | 0.00 | 0.00 | 90 | 1016.2 |
| 20260506073050 | 11 | 68 | 0.0 | 0.0 | 0.00 | 0.00 | 0.00 | 90 | 1016.8 |
| 20260506073022 | 11 | 68 | 0.0 | 0.0 | 0.00 | 0.00 | 0.00 | 90 | 1016.2 |
| 20260506072512 | 12 | 68 | 0.0 | 1.6 | 0.00 | 0.00 | 0.00 | 90 | 1016.3 |
| 20260506072010 | 12 | 70 | 0.0 | 1.6 | 0.00 | 0.00 | 0.00 | 90 | 1016.2 |
| 20260506071547 | 12 | 60 | 0.0 | 0.0 | 0.00 | 0.00 | 0.00 | 90 | 1016.7 |
| 20260506071526 | 12 | 60 | 0.0 | 0.0 | 0.00 | 0.00 | 0.00 | 89 | 1016.2 |
| 20260506071009 | 12 | 60 | 0.0 | 0.0 | 0.00 | 0.00 | 0.00 | 89 | 1016.2 |
| 20260506070509 | 12 | 60 | 0.0 | 0.0 | 0.00 | 0.00 | 0.00 | 89 | 1016.2 |
| 20260506062507 | 13 | 60 | 0.0 | 1.6 | 0.00 | 0.00 | 0.00 | 85 | 1015.9 |
| 20260506062012 | 13 | 60 | 0.0 | 1.6 | 0.00 | 0.00 | 0.00 | 85 | 1015.8 |
| 20260506061541 | 13 | 60 | 0.0 | 1.6 | 0.00 | 0.00 | 0.00 | 85 | 1016.4 |
| 20260506061533 | 13 | 60 | 0.0 | 1.6 | 0.00 | 0.00 | 0.00 | 84 | 1015.8 |
| 20260506061014 | 13 | 60 | 0.0 | 1.6 | 0.00 | 0.00 | 0.00 | 85 | 1015.8 |
| 20260506060510 | 13 | 60 | 0.0 | 1.6 | 0.00 | 0.00 | 0.00 | 84 | 1015.7 |
| 20260506051003 | 14 | 156 | 0.0 | 6.4 | 0.00 | 0.00 | 0.00 | 82 | 1015.4 |
| 20260506050504 | 14 | 157 | 0.0 | 4.8 | 0.00 | 0.00 | 0.00 | 81 | 1015.3 |
| 20260506045003 | 15 | 148 | 0.0 | 3.2 | 0.00 | 0.00 | 0.00 | 81 | 1015.3 |
| 20260506044538 | 15 | 182 | 0.0 | 3.2 | 0.00 | 0.00 | 0.00 | 81 | 1015.8 |
| 20260506044512 | 15 | 131 | 0.0 | 3.2 | 0.00 | 0.00 | 0.00 | 80 | 1015.3 |
| 20260506044008 | 15 | 146 | 0.0 | 1.6 | 0.00 | 0.00 | 0.00 | 80 | 1015.2 |
| 20260506043505 | 15 | 136 | 0.0 | 6.4 | 0.00 | 0.00 | 0.00 | 80 | 1015.2 |
| 20260506043047 | 15 | 138 | 0.0 | 6.4 | 0.00 | 0.00 | 0.00 | 80 | 1015.6 |
| 20260506043014 | 15 | 138 | 1.6 | 6.4 | 0.00 | 0.00 | 0.00 | 80 | 1015.1 |
| 20260506042506 | 15 | 132 | 0.0 | 1.6 | 0.00 | 0.00 | 0.00 | 80 | 1015.1 |
| 20260506042008 | 15 | 132 | 0.0 | 0.0 | 0.00 | 0.00 | 0.00 | 79 | 1015.1 |
| 20260506041538 | 15 | 132 | 0.0 | 0.0 | 0.00 | 0.00 | 0.00 | 79 | 1015.5 |
| 20260506041518 | 15 | 132 | 0.0 | 0.0 | 0.00 | 0.00 | 0.00 | 78 | 1015.1 |
| 20260506041007 | 15 | 132 | 0.0 | 1.6 | 0.00 | 0.00 | 0.00 | 78 | 1015.0 |
| 20260506040508 | 15 | 132 | 0.0 | 3.2 | 0.00 | 0.00 | 0.00 | 77 | 1014.9 |
| 20260506040046 | 15 | 145 | 0.0 | 3.2 | 0.00 | 0.00 | 0.00 | 77 | 1015.3 |
| 20260506035504 | 16 | 137 | 0.0 | 1.6 | 0.00 | 0.00 | 0.00 | 76 | 1014.7 |
| 20260506035006 | 16 | 160 | 0.0 | 0.0 | 0.00 | 0.00 | 0.00 | 75 | 1014.5 |
| 20260506034535 | 16 | 148 | 0.0 | 0.0 | 0.00 | 0.00 | 0.00 | 75 | 1015.1 |
| 20260506034003 | 16 | 195 | 0.0 | 0.0 | 0.00 | 0.00 | 0.00 | 73 | 1014.4 |
| 20260506033505 | 16 | 195 | 0.0 | 3.2 | 0.00 | 0.00 | 0.00 | 73 | 1014.4 |
| 20260506033034 | 17 | 195 | 0.0 | 4.8 | 0.00 | 0.00 | 0.00 | 73 | 1014.9 |
| 20260506032506 | 17 | 247 | 0.0 | 4.8 | 0.00 | 0.00 | 0.00 | 71 | 1014.3 |
| 20260506032007 | 17 | 284 | 0.0 | 1.6 | 0.00 | 0.00 | 0.00 | 69 | 1014.2 |
| 20260506031534 | 18 | 271 | 0.0 | 1.6 | 0.00 | 0.00 | 0.00 | 68 | 1014.7 |
| 20260506031510 | 18 | 271 | 0.0 | 0.0 | 0.00 | 0.00 | 0.00 | 68 | 1014.2 |
| 20260506031007 | 18 | 271 | 0.0 | 3.2 | 0.00 | 0.00 | 0.00 | 67 | 1014.2 |
| 20260506030505 | 18 | 271 | 0.0 | 3.2 | 0.00 | 0.00 | 0.00 | 66 | 1014.1 |
| 20260506030034 | 19 | 220 | 0.0 | 3.2 | 0.00 | 0.00 | 0.00 | 66 | 1014.6 |
| 20260506030017 | 19 | 220 | 0.0 | 3.2 | 0.00 | 0.00 | 0.00 | 65 | 1014.1 |
| 20260506025509 | 19 | 259 | 0.0 | 1.6 | 0.00 | 0.00 | 0.00 | 66 | 1014.1 |
| 20260506025009 | 19 | 209 | 0.0 | 4.8 | 0.00 | 0.00 | 0.00 | 66 | 1014.1 |
| 20260506024540 | 19 | 304 | 0.0 | 4.8 | 0.00 | 0.00 | 0.00 | 65 | 1014.6 |
| 20260506024536 | 19 | 304 | 0.0 | 4.8 | 0.00 | 0.00 | 0.00 | 65 | 1014.1 |
| 20260506023505 | 20 | 269 | 0.0 | 1.6 | 0.00 | 0.00 | 0.00 | 64 | 1014.0 |
| 20260506023030 | 20 | 234 | 0.0 | 1.6 | 0.00 | 0.00 | 0.00 | 65 | 1014.5 |
| 20260506022503 | 20 | 283 | 0.0 | 4.8 | 0.00 | 0.00 | 0.00 | 65 | 1014.0 |
| 20260506022003 | 20 | 282 | 0.0 | 4.8 | 0.00 | 0.00 | 0.00 | 66 | 1014.0 |
| 20260506021545 | 20 | 285 | 0.0 | 3.2 | 0.00 | 0.00 | 0.00 | 66 | 1014.5 |
| 20260506021511 | 20 | 174 | 0.0 | 3.2 | 0.00 | 0.00 | 0.00 | 66 | 1014.0 |
| 20260506021006 | 20 | 269 | 0.0 | 6.4 | 0.00 | 0.00 | 0.00 | 66 | 1014.0 |
| 20260506020506 | 19 | 269 | 0.0 | 6.4 | 0.00 | 0.00 | 0.00 | 67 | 1014.0 |
| 20260506020029 | 19 | 290 | 3.2 | 6.4 | 0.00 | 0.00 | 0.00 | 67 | 1014.5 |
| 20260506020016 | 19 | 292 | 3.2 | 6.4 | 0.00 | 0.00 | 0.00 | 66 | 1014.1 |
| 20260506015508 | 20 | 214 | 0.0 | 8.0 | 0.00 | 0.00 | 0.00 | 66 | 1014.0 |
| 20260506015011 | 19 | 256 | 0.0 | 9.7 | 0.00 | 0.00 | 0.00 | 67 | 1014.0 |
| 20260506014529 | 19 | 266 | 4.8 | 9.7 | 0.00 | 0.00 | 0.00 | 66 | 1014.5 |
| 20260506014522 | 19 | 281 | 4.8 | 9.7 | 0.00 | 0.00 | 0.00 | 66 | 1014.0 |
| 20260506014009 | 20 | 265 | 1.6 | 9.7 | 0.00 | 0.00 | 0.00 | 66 | 1014.0 |
| 20260506013509 | 20 | 271 | 4.8 | 9.7 | 0.00 | 0.00 | 0.00 | 65 | 1014.0 |
| 20260506013028 | 20 | 281 | 3.2 | 8.0 | 0.00 | 0.00 | 0.00 | 65 | 1014.5 |
| 20260506012504 | 20 | 209 | 1.6 | 11.3 | 0.00 | 0.00 | 0.00 | 64 | 1014.0 |
| 20260506012005 | 21 | 271 | 0.0 | 9.7 | 0.00 | 0.00 | 0.00 | 63 | 1014.0 |
| 20260506011530 | 21 | 311 | 1.6 | 8.0 | 0.00 | 0.00 | 0.00 | 63 | 1014.5 |
| 20260506011515 | 21 | 281 | 1.6 | 8.0 | 0.00 | 0.00 | 0.00 | 61 | 1014.0 |
| 20260506011003 | 21 | 257 | 3.2 | 8.0 | 0.00 | 0.00 | 0.00 | 62 | 1014.0 |
| 20260506010511 | 21 | 281 | 1.6 | 8.0 | 0.00 | 0.00 | 0.00 | 63 | 1014.0 |
| 20260506010031 | 21 | 217 | 3.2 | 11.3 | 0.00 | 0.00 | 0.00 | 63 | 1014.4 |
| 20260506005507 | 21 | 205 | 1.6 | 11.3 | 0.00 | 0.00 | 0.00 | 62 | 1014.0 |
| 20260506005008 | 21 | 165 | 3.2 | 11.3 | 0.00 | 0.00 | 0.00 | 62 | 1014.0 |
| 20260506004527 | 21 | 201 | 1.6 | 11.3 | 0.00 | 0.00 | 0.00 | 61 | 1014.4 |
| 20260506004520 | 21 | 183 | 3.2 | 11.3 | 0.00 | 0.00 | 0.00 | 61 | 1013.9 |
| 20260506004010 | 21 | 193 | 1.6 | 9.7 | 0.00 | 0.00 | 0.00 | 60 | 1013.9 |
| 20260506003026 | 21 | 230 | 3.2 | 8.0 | 0.00 | 0.00 | 0.00 | 61 | 1014.4 |
| 20260506002514 | 21 | 182 | 3.2 | 9.7 | 0.00 | 0.00 | 0.00 | 61 | 1014.0 |
| 20260506002013 | 21 | 203 | 4.8 | 11.3 | 0.00 | 0.00 | 0.00 | 60 | 1014.0 |
| 20260506001525 | 21 | 223 | 3.2 | 11.3 | 0.00 | 0.00 | 0.00 | 61 | 1014.5 |
| 20260506001010 | 21 | 158 | 3.2 | 9.7 | 0.00 | 0.00 | 0.00 | 61 | 1014.1 |
| 20260506000025 | 21 | 286 | 3.2 | 11.3 | 0.00 | 0.00 | 0.00 | 61 | 1014.7 |
| 20260506000010 | 21 | 216 | 3.2 | 12.9 | 0.00 | 0.00 | 0.00 | 62 | 1014.2 |
| 20260505235008 | 21 | 200 | 4.8 | 11.3 | 0.00 | 0.00 | 0.00 | 61 | 1014.3 |
| 20260505234524 | 21 | 158 | 1.6 | 11.3 | 0.00 | 0.00 | 0.00 | 62 | 1014.7 |
| 20260505234008 | 21 | 151 | 3.2 | 9.7 | 0.00 | 0.00 | 0.00 | 61 | 1014.4 |
| 20260505233508 | 21 | 203 | 3.2 | 9.7 | 0.00 | 0.00 | 0.00 | 62 | 1014.3 |
| 20260505233023 | 21 | 210 | 3.2 | 9.7 | 0.00 | 0.00 | 0.00 | 62 | 1014.8 |
| 20260505232512 | 21 | 171 | 3.2 | 11.3 | 0.00 | 0.00 | 0.00 | 61 | 1014.4 |
| 20260505232009 | 21 | 180 | 3.2 | 12.9 | 0.00 | 0.00 | 0.00 | 61 | 1014.4 |
| 20260505231527 | 21 | 225 | 3.2 | 12.9 | 0.00 | 0.00 | 0.00 | 62 | 1015.0 |
| 20260505230510 | 21 | 143 | 3.2 | 11.3 | 0.00 | 0.00 | 0.00 | 63 | 1014.7 |
| 20260505230048 | 21 | 153 | 3.2 | 11.3 | 0.00 | 0.00 | 0.00 | 62 | 1014.7 |
| 20260505230024 | 21 | 218 | 3.2 | 11.3 | 0.00 | 0.00 | 0.00 | 63 | 1015.1 |
| 20260505225515 | 21 | 292 | 3.2 | 12.9 | 0.00 | 0.00 | 0.00 | 62 | 1014.8 |
| 20260505225007 | 21 | 203 | 3.2 | 17.7 | 0.00 | 0.00 | 0.00 | 63 | 1014.8 |
| 20260505224528 | 21 | 196 | 6.4 | 17.7 | 0.00 | 0.00 | 0.00 | 62 | 1015.3 |
| 20260505224008 | 21 | 195 | 1.6 | 14.5 | 0.00 | 0.00 | 0.00 | 64 | 1014.9 |
| 20260505223511 | 21 | 192 | 8.0 | 14.5 | 0.00 | 0.00 | 0.00 | 62 | 1014.8 |
| 20260505223020 | 21 | 163 | 4.8 | 14.5 | 0.00 | 0.00 | 0.00 | 62 | 1015.3 |
| 20260505222512 | 21 | 226 | 4.8 | 14.5 | 0.00 | 0.00 | 0.00 | 62 | 1014.9 |
| 20260505221520 | 21 | 195 | 3.2 | 11.3 | 0.00 | 0.00 | 0.00 | 64 | 1015.3 |
| 20260505221011 | 21 | 281 | 4.8 | 9.7 | 0.00 | 0.00 | 0.00 | 63 | 1014.8 |
| 20260505220018 | 20 | 228 | 1.6 | 12.9 | 0.00 | 0.00 | 0.00 | 66 | 1015.4 |
| 20260505215509 | 20 | 229 | 1.6 | 14.5 | 0.00 | 0.00 | 0.00 | 64 | 1015.0 |
| 20260505215012 | 20 | 283 | 6.4 | 14.5 | 0.00 | 0.00 | 0.00 | 65 | 1015.0 |
| 20260505214529 | 20 | 209 | 4.8 | 12.9 | 0.00 | 0.00 | 0.00 | 64 | 1015.0 |
| 20260505214517 | 20 | 209 | 3.2 | 12.9 | 0.00 | 0.00 | 0.00 | 65 | 1015.4 |
| 20260505214013 | 20 | 289 | 3.2 | 14.5 | 0.00 | 0.00 | 0.00 | 66 | 1015.0 |
| 20260505213509 | 20 | 286 | 9.7 | 14.5 | 0.00 | 0.00 | 0.00 | 65 | 1015.1 |
| 20260505213019 | 20 | 250 | 4.8 | 12.9 | 0.00 | 0.00 | 0.00 | 66 | 1015.6 |
| 20260505212508 | 20 | 231 | 3.2 | 12.9 | 0.00 | 0.00 | 0.00 | 64 | 1015.1 |
| 20260505211533 | 21 | 298 | 3.2 | 8.0 | 0.00 | 0.00 | 0.00 | 64 | 1015.6 |
| 20260505211526 | 21 | 236 | 4.8 | 8.0 | 0.00 | 0.00 | 0.00 | 63 | 1015.1 |
| 20260505210029 | 20 | 213 | 3.2 | 8.0 | 0.00 | 0.00 | 0.00 | 65 | 1015.3 |
| 20260505210015 | 20 | 283 | 1.6 | 8.0 | 0.00 | 0.00 | 0.00 | 65 | 1015.7 |
| 20260505204512 | 20 | 129 | 1.6 | 12.9 | 0.00 | 0.00 | 0.00 | 67 | 1015.8 |
| 20260505204009 | 20 | 230 | 6.4 | 12.9 | 0.00 | 0.00 | 0.00 | 67 | 1015.4 |
| 20260505203510 | 20 | 217 | 1.6 | 11.3 | 0.00 | 0.00 | 0.00 | 67 | 1015.5 |
| 20260505203028 | 20 | 281 | 4.8 | 11.3 | 0.00 | 0.00 | 0.00 | 67 | 1015.5 |
| 20260505203012 | 19 | 276 | 4.8 | 11.3 | 0.00 | 0.00 | 0.00 | 67 | 1016.0 |
| 20260505202512 | 20 | 269 | 1.6 | 8.0 | 0.00 | 0.00 | 0.00 | 67 | 1015.5 |
| 20260505201510 | 20 | 172 | 3.2 | 11.3 | 0.00 | 0.00 | 0.00 | 68 | 1016.0 |
| 20260505201007 | 19 | 282 | 3.2 | 12.9 | 0.00 | 0.00 | 0.00 | 69 | 1015.5 |
| 20260505200503 | 18 | 226 | 1.6 | 12.9 | 0.00 | 0.00 | 0.00 | 71 | 1015.6 |
| 20260505200010 | 18 | 270 | 3.2 | 17.7 | 0.00 | 0.00 | 0.00 | 71 | 1016.1 |
| 20260505200003 | 18 | 278 | 4.8 | 17.7 | 0.00 | 0.00 | 0.00 | 71 | 1015.6 |
| 20260505195505 | 18 | 191 | 6.4 | 17.7 | 0.00 | 0.00 | 0.00 | 71 | 1015.6 |
| 20260505195004 | 18 | 293 | 3.2 | 11.3 | 0.00 | 0.00 | 0.00 | 72 | 1015.6 |
| 20260505194510 | 18 | 283 | 4.8 | 11.3 | 0.00 | 0.00 | 0.00 | 73 | 1016.2 |
| 20260505194506 | 18 | 284 | 4.8 | 11.3 | 0.00 | 0.00 | 0.00 | 72 | 1015.7 |
| 20260505194004 | 18 | 287 | 4.8 | 12.9 | 0.00 | 0.00 | 0.00 | 72 | 1015.7 |
| 20260505193504 | 18 | 288 | 6.4 | 12.9 | 0.00 | 0.00 | 0.00 | 72 | 1015.7 |
| 20260505193014 | 18 | 279 | 4.8 | 14.5 | 0.00 | 0.00 | 0.00 | 73 | 1015.7 |
| 20260505193009 | 18 | 279 | 3.2 | 14.5 | 0.00 | 0.00 | 0.00 | 74 | 1016.2 |
| 20260505192507 | 17 | 141 | 9.7 | 14.5 | 0.00 | 0.00 | 0.00 | 73 | 1015.6 |
| 20260505192008 | 18 | 281 | 4.8 | 17.7 | 0.00 | 0.00 | 0.00 | 71 | 1015.6 |
| 20260505191516 | 18 | 214 | 11.3 | 17.7 | 0.00 | 0.00 | 0.00 | 71 | 1015.6 |
| 20260505191507 | 18 | 221 | 9.7 | 17.7 | 0.00 | 0.00 | 0.00 | 71 | 1016.2 |
| 20260505191008 | 18 | 158 | 3.2 | 16.1 | 0.00 | 0.00 | 0.00 | 71 | 1015.6 |
| 20260505190508 | 18 | 232 | 6.4 | 11.3 | 0.00 | 0.00 | 0.00 | 69 | 1015.6 |
| 20260505190019 | 18 | 210 | 8.0 | 11.3 | 0.00 | 0.00 | 0.00 | 69 | 1015.6 |
| 20260505190012 | 18 | 243 | 6.4 | 11.3 | 0.00 | 0.00 | 0.00 | 70 | 1016.1 |
| 20260505185514 | 19 | 263 | 4.8 | 11.3 | 0.00 | 0.00 | 0.00 | 68 | 1015.6 |
| 20260505184504 | 19 | 222 | 0.0 | 9.7 | 0.00 | 0.00 | 0.00 | 70 | 1016.1 |
| 20260505183010 | 18 | 167 | 6.4 | 12.9 | 0.00 | 0.00 | 0.00 | 71 | 1015.6 |
| 20260505183004 | 18 | 167 | 4.8 | 12.9 | 0.00 | 0.00 | 0.00 | 72 | 1016.2 |
| 20260505182006 | 17 | 259 | 3.2 | 8.0 | 0.00 | 0.00 | 0.00 | 72 | 1015.5 |
| 20260505181501 | 18 | 195 | 1.6 | 8.0 | 0.00 | 0.00 | 0.00 | 72 | 1016.1 |
| 20260505180109 | 17 | 222 | 3.2 | 9.7 | 0.00 | 0.00 | 0.00 | 75 | 1016.1 |
| 20260505180018 | 17 | 150 | 4.8 | 8.0 | 0.00 | 0.00 | 0.00 | 74 | 1015.5 |
| 20260505175508 | 17 | 214 | 0.0 | 8.0 | 0.00 | 0.00 | 0.00 | 75 | 1015.5 |
| 20260505175008 | 17 | 217 | 4.8 | 11.3 | 0.00 | 0.00 | 0.00 | 75 | 1015.6 |
| 20260505174557 | 17 | 167 | 3.2 | 11.3 | 0.00 | 0.00 | 0.00 | 76 | 1016.2 |
| 20260505174521 | 17 | 231 | 3.2 | 11.3 | 0.00 | 0.00 | 0.00 | 75 | 1015.6 |
| 20260505174009 | 17 | 232 | 3.2 | 11.3 | 0.00 | 0.00 | 0.00 | 75 | 1015.6 |
| 20260505173056 | 17 | 169 | 4.8 | 11.3 | 0.00 | 0.00 | 0.00 | 75 | 1016.2 |
| 20260505171558 | 17 | 149 | 1.6 | 9.7 | 0.00 | 0.00 | 0.00 | 77 | 1016.2 |
| 20260505171511 | 17 | 191 | 1.6 | 9.7 | 0.00 | 0.00 | 0.00 | 77 | 1015.5 |
| 20260505170056 | 16 | 191 | 0.0 | 9.7 | 0.00 | 0.00 | 0.00 | 77 | 1016.2 |
| 20260505165006 | 16 | 207 | 1.6 | 9.7 | 0.00 | 0.00 | 0.00 | 75 | 1015.6 |
| 20260505164554 | 17 | 184 | 4.8 | 9.7 | 0.00 | 0.00 | 0.00 | 76 | 1016.2 |
| 20260505164522 | 17 | 179 | 3.2 | 9.7 | 0.00 | 0.00 | 0.00 | 75 | 1015.5 |
| 20260505164010 | 16 | 269 | 3.2 | 9.7 | 0.00 | 0.00 | 0.00 | 75 | 1015.6 |
| 20260505163510 | 17 | 233 | 3.2 | 8.0 | 0.00 | 0.00 | 0.00 | 76 | 1015.5 |
| 20260505163051 | 17 | 146 | 0.0 | 6.4 | 0.00 | 0.00 | 0.00 | 77 | 1016.0 |
| 20260505163024 | 17 | 207 | 1.6 | 8.0 | 0.00 | 0.00 | 0.00 | 76 | 1015.5 |
| 20260505162509 | 16 | 215 | 0.0 | 8.0 | 0.00 | 0.00 | 0.00 | 77 | 1015.4 |
| 20260505162007 | 16 | 163 | 3.2 | 6.4 | 0.00 | 0.00 | 0.00 | 78 | 1015.5 |
| 20260505161551 | 16 | 135 | 1.6 | 6.4 | 0.00 | 0.00 | 0.00 | 78 | 1016.1 |
| 20260505161509 | 16 | 161 | 3.2 | 6.4 | 0.00 | 0.00 | 0.00 | 77 | 1015.5 |
| 20260505153049 | 15 | 174 | 3.2 | 8.0 | 0.00 | 0.00 | 0.00 | 82 | 1016.0 |
| 20260505153019 | 15 | 195 | 4.8 | 8.0 | 0.00 | 0.00 | 0.00 | 82 | 1015.4 |
| 20260505152510 | 14 | 106 | 1.6 | 8.0 | 0.00 | 0.00 | 0.00 | 83 | 1015.4 |
| 20260505152013 | 14 | 162 | 1.6 | 6.4 | 0.00 | 0.00 | 0.00 | 83 | 1015.4 |
| 20260505151545 | 14 | 162 | 1.6 | 6.4 | 0.00 | 0.00 | 0.00 | 83 | 1016.1 |
| 20260505151525 | 14 | 160 | 3.2 | 8.0 | 0.00 | 0.00 | 0.00 | 83 | 1015.4 |
| 20260505151009 | 14 | 130 | 1.6 | 8.0 | 0.00 | 0.00 | 0.00 | 83 | 1015.4 |
| 20260505150511 | 14 | 233 | 1.6 | 8.0 | 0.00 | 0.00 | 0.00 | 83 | 1015.3 |
| 20260505140510 | 12 | 153 | 0.0 | 0.0 | 0.00 | 0.00 | 0.00 | 89 | 1014.7 |
| 20260505125010 | 10 | 38 | 0.0 | 1.6 | 0.00 | 0.00 | 0.00 | 93 | 1013.9 |
| 20260505124538 | 10 | 38 | 0.0 | 1.6 | 0.00 | 0.00 | 0.00 | 93 | 1013.8 |
| 20260505124521 | 10 | 38 | 0.0 | 1.6 | 0.00 | 0.00 | 0.00 | 94 | 1014.3 |
| 20260505124012 | 10 | 38 | 0.0 | 0.0 | 0.00 | 0.00 | 0.00 | 93 | 1013.7 |
| 20260505123508 | 10 | 38 | 0.0 | 1.6 | 0.00 | 0.00 | 0.00 | 93 | 1013.7 |
| 20260505123021 | 10 | 38 | 0.0 | 1.6 | 0.00 | 0.00 | 0.00 | 93 | 1014.2 |
| 20260505123011 | 10 | 38 | 0.0 | 1.6 | 0.00 | 0.00 | 0.00 | 93 | 1013.6 |
| 20260505122504 | 10 | 38 | 0.0 | 1.6 | 0.00 | 0.00 | 0.00 | 92 | 1013.6 |
| 20260505122012 | 10 | 38 | 0.0 | 1.6 | 0.00 | 0.00 | 0.00 | 92 | 1013.6 |
| 20260505121530 | 10 | 38 | 0.0 | 1.6 | 0.00 | 0.00 | 0.00 | 92 | 1013.5 |
| 20260505121517 | 10 | 38 | 0.0 | 1.6 | 0.00 | 0.00 | 0.00 | 93 | 1014.1 |
| 20260505120508 | 10 | 38 | 0.0 | 1.6 | 0.00 | 0.00 | 0.00 | 92 | 1013.4 |
| 20260505120023 | 10 | 38 | 0.0 | 1.6 | 0.00 | 0.00 | 0.00 | 92 | 1013.3 |
| 20260505120016 | 10 | 38 | 0.0 | 1.6 | 0.00 | 0.00 | 0.00 | 93 | 1013.9 |
| 20260505115508 | 10 | 38 | 0.0 | 1.6 | 0.00 | 0.00 | 0.00 | 92 | 1013.2 |
| 20260505115009 | 10 | 38 | 0.0 | 0.0 | 0.00 | 0.00 | 0.00 | 92 | 1013.2 |
| 20260505114523 | 10 | 38 | 0.0 | 0.0 | 0.00 | 0.00 | 0.00 | 91 | 1013.2 |
| 20260505114513 | 10 | 38 | 0.0 | 0.0 | 0.00 | 0.00 | 0.00 | 91 | 1013.7 |
| 20260505114008 | 10 | 38 | 0.0 | 0.0 | 0.00 | 0.00 | 0.00 | 90 | 1013.1 |
| 20260505113511 | 10 | 38 | 0.0 | 0.0 | 0.00 | 0.00 | 0.00 | 90 | 1013.1 |
| 20260505113026 | 10 | 38 | 0.0 | 1.6 | 0.00 | 0.00 | 0.00 | 89 | 1013.0 |
| 20260505113008 | 10 | 38 | 0.0 | 1.6 | 0.00 | 0.00 | 0.00 | 90 | 1013.4 |
| 20260505112510 | 11 | 38 | 0.0 | 1.6 | 0.00 | 0.00 | 0.00 | 89 | 1013.0 |
| 20260505111516 | 11 | 38 | 0.0 | 1.6 | 0.00 | 0.00 | 0.00 | 88 | 1012.8 |
| 20260505111008 | 11 | 38 | 0.0 | 3.2 | 0.00 | 0.00 | 0.00 | 87 | 1012.6 |
| 20260505110508 | 11 | 38 | 0.0 | 3.2 | 0.00 | 0.00 | 0.00 | 87 | 1012.5 |
| 20260505102007 | 12 | 50 | 0.0 | 1.6 | 0.00 | 0.00 | 0.00 | 87 | 1012.4 |
| 20260505101604 | 11 | 50 | 0.0 | 1.6 | 0.00 | 0.00 | 0.00 | 88 | 1012.8 |
| 20260505101517 | 11 | 50 | 0.0 | 3.2 | 0.00 | 0.00 | 0.00 | 87 | 1012.3 |
| 20260505101007 | 11 | 51 | 0.0 | 3.2 | 0.00 | 0.00 | 0.00 | 88 | 1012.3 |
| 20260505100507 | 11 | 46 | 1.6 | 3.2 | 0.00 | 0.00 | 0.00 | 87 | 1012.2 |
| 20260505100057 | 12 | 52 | 0.0 | 3.2 | 0.00 | 0.00 | 0.00 | 88 | 1012.7 |
| 20260505100032 | 12 | 52 | 1.6 | 3.2 | 0.00 | 0.00 | 0.00 | 87 | 1012.2 |
| 20260505095506 | 12 | 52 | 1.6 | 3.2 | 0.00 | 0.00 | 0.00 | 87 | 1012.2 |
| 20260505095010 | 12 | 91 | 0.0 | 0.0 | 0.00 | 0.00 | 0.00 | 86 | 1012.2 |
| 20260505094600 | 12 | 179 | 0.0 | 0.0 | 0.00 | 0.00 | 0.00 | 85 | 1012.5 |
| 20260505094524 | 12 | 179 | 0.0 | 0.0 | 0.00 | 0.00 | 0.00 | 85 | 1012.1 |
| 20260505094003 | 12 | 179 | 0.0 | 0.0 | 0.00 | 0.00 | 0.00 | 85 | 1012.0 |
| 20260505093503 | 12 | 179 | 0.0 | 0.0 | 0.00 | 0.00 | 0.00 | 84 | 1012.0 |
| 20260505093055 | 12 | 179 | 0.0 | 0.0 | 0.00 | 0.00 | 0.00 | 83 | 1012.4 |
| 20260505093022 | 12 | 179 | 0.0 | 3.2 | 0.00 | 0.00 | 0.00 | 83 | 1012.0 |
| 20260505092503 | 13 | 179 | 0.0 | 3.2 | 0.00 | 0.00 | 0.00 | 83 | 1012.0 |
| 20260505092007 | 12 | 191 | 0.0 | 3.2 | 0.00 | 0.00 | 0.00 | 82 | 1011.9 |
| 20260505091550 | 12 | 135 | 0.0 | 1.6 | 0.00 | 0.00 | 0.00 | 83 | 1012.3 |
| 20260505091516 | 12 | 135 | 0.0 | 1.6 | 0.00 | 0.00 | 0.00 | 83 | 1011.9 |
| 20260505091004 | 12 | 135 | 0.0 | 1.6 | 0.00 | 0.00 | 0.00 | 83 | 1011.8 |
| 20260505090507 | 12 | 135 | 0.0 | 1.6 | 0.00 | 0.00 | 0.00 | 84 | 1011.8 |
| 20260505090055 | 12 | 135 | 0.0 | 1.6 | 0.00 | 0.00 | 0.00 | 85 | 1012.1 |
| 20260505090015 | 12 | 135 | 0.0 | 1.6 | 0.00 | 0.00 | 0.00 | 84 | 1011.8 |
| 20260505085507 | 12 | 129 | 0.0 | 1.6 | 0.00 | 0.00 | 0.00 | 85 | 1011.6 |
| 20260505085013 | 12 | 117 | 0.0 | 1.6 | 0.00 | 0.00 | 0.00 | 87 | 1011.5 |
| 20260505084545 | 12 | 136 | 0.0 | 0.0 | 0.00 | 0.00 | 0.00 | 87 | 1011.8 |
| 20260505084524 | 12 | 136 | 0.0 | 0.0 | 0.00 | 0.00 | 0.00 | 87 | 1011.4 |
| 20260505084008 | 12 | 56 | 0.0 | 0.0 | 0.00 | 0.00 | 0.00 | 87 | 1011.4 |
| 20260505083514 | 12 | 56 | 0.0 | 0.0 | 0.00 | 0.00 | 0.00 | 87 | 1011.4 |
| 20260505083100 | 12 | 56 | 0.0 | 0.0 | 0.00 | 0.00 | 0.00 | 86 | 1011.7 |
| 20260505083034 | 12 | 56 | 0.0 | 0.0 | 0.00 | 0.00 | 0.00 | 86 | 1011.4 |
| 20260505082510 | 13 | 56 | 0.0 | 0.0 | 0.00 | 0.00 | 0.00 | 85 | 1011.2 |
| 20260505082004 | 13 | 56 | 0.0 | 0.0 | 0.00 | 0.00 | 0.00 | 85 | 1011.2 |
| 20260505081541 | 13 | 56 | 0.0 | 0.0 | 0.00 | 0.00 | 0.00 | 86 | 1011.4 |
| 20260505081514 | 13 | 56 | 0.0 | 0.0 | 0.00 | 0.00 | 0.00 | 85 | 1011.2 |